This is the latest recevied weather packets stored in our database for station/object W1HVD. If no packets are shown the sender has not sent any weather packets the latest 1 day(s).
| Time | Temp. | Humidity | Pressure | Rain* | Wind** | Luminosity | Snow |
|---|---|---|---|---|---|---|---|
| 1778020694 | 16.67° C | 67% | 1009.8 hPa | 0 mm | 2.24 m/s, 200° | 43 W/m² | - |
| 1778020391 | 16.67° C | 67% | 1009.8 hPa | 0 mm | 2.68 m/s, 241° | 45 W/m² | - |
| 1778020086 | 16.67° C | 67% | 1009.6 hPa | 0 mm | 1.79 m/s, 230° | 48 W/m² | - |
| 1778019783 | 17.22° C | 67% | 1009.9 hPa | 0 mm | 0.89 m/s, 257° | 50 W/m² | - |
| 1778019480 | 17.78° C | 66% | 1009.6 hPa | 0 mm | 1.79 m/s, 167° | 54 W/m² | - |
| 1778019177 | 17.78° C | 65% | 1009.7 hPa | 0 mm | 0.89 m/s, 242° | 69 W/m² | - |
| 1778018874 | 18.33° C | 64% | 1009.4 hPa | 0 mm | 0.89 m/s, 171° | 102 W/m² | - |
| 1778018571 | 18.33° C | 63% | 1009.3 hPa | 0 mm | 0.89 m/s, 191° | 110 W/m² | - |
| 1778018269 | 18.33° C | 62% | 1009.3 hPa | 0 mm | 0.89 m/s, 229° | 124 W/m² | - |
| 1778017966 | 18.89° C | 62% | 1009.3 hPa | 0 mm | 1.34 m/s, 230° | 135 W/m² | - |
| 1778017664 | 18.89° C | 61% | 1009.5 hPa | 0 mm | 2.68 m/s, 219° | 152 W/m² | - |
| 1778017361 | 18.89° C | 60% | 1009.2 hPa | 0 mm | 2.68 m/s, 178° | 183 W/m² | - |
| 1778017058 | 19.44° C | 59% | 1009.3 hPa | 0 mm | 2.68 m/s, 233° | 192 W/m² | - |
| 1778016756 | 19.44° C | 59% | 1009.3 hPa | 0 mm | 0.45 m/s, 216° | 208 W/m² | - |
| 1778016451 | 19.44° C | 60% | 1009.3 hPa | 0 mm | 1.79 m/s, 93° | 213 W/m² | - |
| 1778016149 | 19.44° C | 60% | 1009.3 hPa | 0 mm | 1.34 m/s, 196° | 136 W/m² | - |
| 1778015846 | 20° C | 58% | 1008.9 hPa | 0 mm | 0.89 m/s, 271° | 208 W/m² | - |
| 1778015543 | 20.56° C | 57% | 1009.3 hPa | 0 mm | 0.89 m/s, 219° | 232 W/m² | - |
| 1778015239 | 20° C | 57% | 1008.9 hPa | 0 mm | 2.24 m/s, 235° | 261 W/m² | - |
| 1778014936 | 20.56° C | 56% | 1009.1 hPa | 0 mm | 2.24 m/s, 187° | 276 W/m² | - |
| 1778014634 | 20° C | 58% | 1009 hPa | 0 mm | 1.34 m/s, 147° | 290 W/m² | - |
| 1778014332 | 20° C | 59% | 1009.1 hPa | 0 mm | 0.89 m/s, 91° | 305 W/m² | - |
| 1778014028 | 19.44° C | 59% | 1009.3 hPa | 0 mm | 1.34 m/s, 250° | 319 W/m² | - |
| 1778013726 | 20° C | 59% | 1009.2 hPa | 0 mm | 2.24 m/s, 202° | 334 W/m² | - |
| 1778013423 | 19.44° C | 59% | 1009.3 hPa | 0 mm | 1.79 m/s, 196° | 346 W/m² | - |
* Rain latest hour (hover to see other rain measurements)
** Current wind speed in m/s (hover to see current wind gust speed)